Change the Weather History Date:

Tuesday, October 29, 2013

  Actual Average Record
Temperature  
Mean Temperature 31 °F -  
Max Temperature 39 °F 44 °F 73 °F (2008)
Min Temperature 23 °F 25 °F 10 °F (2002)
Degree Days  
Heating Degree Days 34    
Month to date heating degree days 561  
Moisture  
Dew Point 23 °F    
Average Humidity 70    
Maximum Humidity 81    
Minimum Humidity 59    
Precipitation  
Precipitation 0.00 in - - ()
Month to date precipitation 3.31  
Year to date precipitation 28.87  
Sea Level Pressure  
Sea Level Pressure 30.27 in    
Wind  
Wind Speed 8 mph (SSE)    
Max Wind Speed 13 mph    
Max Gust Speed 16 mph    
Averages and records for this station are not official NWS values.
T = Trace of Precipitation, MM = Missing Value Source: NWS Daily Summary

Daily Weather History Graph

Daily Weather History Graph

Search for Another Location

Airport or City:

Trip Planner

Search our weather history database for the weather conditions in past years. The results will help you decide how hot, cold, wet, or windy it might be!

Date:

Astronomy

Oct. 29, 2013 Rise Set
Actual Time 8:25 AM CDT 6:32 PM CDT
Civil Twilight 7:53 AM CDT 7:04 PM CDT
Nautical Twilight 7:17 AM CDT 7:40 PM CDT
Astronomical Twilight 6:41 AM CDT 8:16 PM CDT
Moon 2:57 AM CDT (10/29) 4:05 PM CDT (10/29)
Length of Visible Light 11h 10m
Length of Day
10h 06m
Waning Crescent, 25% of the Moon is Illuminated
Oct 29
Waning Crescent
Nov 3
New
Nov 9
First Quarter
Nov 17
Full
Nov 25
Last Quarter

Hourly Weather History & Observations

Time (CDT) Temp. Windchill Dew Point Humidity Pressure Visibility Wind Dir Wind Speed Gust Speed Precip Events Conditions
12:52 AM 24.1 °F 15.2 °F 18.0 °F 77% 30.50 in - East 8.1 mph - N/A   Unknown
1:52 AM 26.1 °F 16.8 °F 19.0 °F 75% 30.48 in - SE 9.2 mph - N/A   Unknown
2:52 AM 26.1 °F 16.2 °F 19.0 °F 75% 30.45 in - SE 10.4 mph - N/A   Unknown
3:52 AM 26.1 °F 16.8 °F 19.0 °F 75% 30.42 in - SE 9.2 mph - N/A   Unknown
4:52 AM 26.1 °F 17.6 °F 19.0 °F 75% 30.39 in - SE 8.1 mph - N/A   Unknown
5:52 AM 24.1 °F 18.2 °F 19.9 °F 84% 30.36 in - ESE 4.6 mph - N/A   Unknown
6:52 AM 25.0 °F 18.1 °F 19.9 °F 81% 30.36 in - ESE 5.8 mph - N/A   Unknown
7:52 AM 26.1 °F 18.4 °F 21.0 °F 81% 30.35 in - SE 6.9 mph - N/A   Unknown
8:52 AM 26.1 °F 17.6 °F 19.9 °F 78% 30.36 in - SE 8.1 mph - N/A   Unknown
9:52 AM 27.0 °F 19.5 °F 21.0 °F 78% 30.34 in - SE 6.9 mph - N/A   Unknown
10:52 AM 28.0 °F 20.8 °F 21.9 °F 78% 30.32 in - SE 6.9 mph - N/A   Unknown
11:52 AM 30.0 °F 22.4 °F 23.0 °F 75% 30.30 in - SE 8.1 mph - N/A   Unknown
12:52 PM 33.1 °F 26.1 °F 25.0 °F 72% 30.28 in - South 8.1 mph - N/A   Unknown
1:52 PM 35.1 °F 27.4 °F 25.0 °F 67% 30.23 in - South 10.4 mph - N/A   Unknown
2:52 PM 37.0 °F 29.3 °F 26.1 °F 65% 30.19 in - South 11.5 mph - N/A   Unknown
3:52 PM 37.9 °F 32.7 °F 26.1 °F 62% 30.17 in - South 6.9 mph - N/A   Unknown
4:52 PM 37.0 °F 32.4 °F 26.1 °F 65% 30.16 in - South 5.8 mph - N/A   Unknown
5:52 PM 37.0 °F 31.6 °F 25.0 °F 62% 30.16 in - SSE 6.9 mph - N/A   Unknown
6:52 PM 35.1 °F 30.1 °F 26.1 °F 70% 30.16 in - South 5.8 mph - N/A   Unknown
7:52 PM 35.1 °F 30.1 °F 27.0 °F 72% 30.14 in - SSW 5.8 mph - N/A   Unknown
8:52 PM 34.0 °F 28.8 °F 27.0 °F 75% 30.13 in - SSW 5.8 mph - N/A   Unknown
9:52 PM 34.0 °F 27.2 °F 27.0 °F 75% 30.12 in - SSW 8.1 mph - N/A   Unknown
10:52 PM 34.0 °F 26.6 °F 27.0 °F 75% 30.11 in - SSW 9.2 mph - N/A   Unknown
11:52 PM 34.0 °F 26.0 °F 27.0 °F 75% 30.10 in - SSW 10.4 mph - N/A   Unknown